Location: Chanteloup
(48.8560°N, 2.7390°E)
Time: 12:59:54
(UTC+00:00)

Cosmos 2322 Rocket - Visible Passes

Search period start: 29 May 2022 00:00
Search period end: 08 June 2022 00:00
Orbit: 834 x 849 km, 71.0° (Epoch: 28 May)

Date Brightness Start Highest point End Pass type
(mag) Time Alt. Az. Time Alt. Az. Time Alt. Az.
29 May 2.2 21:31:14 10° SSW 21:36:47 66° ESE 21:42:22 10° NNE visible
29 May 4.1 23:16:35 10° WSW 23:21:18 27° NW 23:26:03 10° NNE visible
30 May 2.2 21:16:11 10° SSW 21:21:43 63° ESE 21:27:16 10° NNE visible
30 May 4.1 23:01:25 10° WSW 23:06:12 28° NW 23:11:01 10° NNE visible
31 May 2.2 21:01:09 10° S 21:06:39 60° ESE 21:12:11 10° NE visible
31 May 4.1 22:46:15 10° WSW 22:51:06 29° NW 22:55:58 10° NNE visible
01 Jun 2.3 20:46:07 10° S 20:51:35 57° ESE 20:57:06 10° NE visible
01 Jun 4.1 22:31:05 10° WSW 22:35:59 30° NW 22:40:54 10° NNE visible
02 Jun 2.3 20:31:05 10° S 20:36:32 55° ESE 20:42:00 10° NE visible
02 Jun 4.0 22:15:55 10° WSW 22:20:53 31° NW 22:25:52 10° NNE visible
03 Jun 5.5 00:06:35 10° NNW 00:06:54 10° NNW 00:07:13 10° NNW visible
03 Jun 4.0 22:00:46 10° WSW 22:05:46 32° NW 22:10:48 10° NNE visible
03 Jun 5.4 23:50:53 10° NNW 23:51:45 10° NNW 23:52:37 10° NNW visible
04 Jun 4.0 21:45:36 10° WSW 21:50:40 33° NW 21:55:45 10° NNE visible
04 Jun 5.4 23:35:25 10° NW 23:36:36 11° NNW 23:37:47 10° NNW visible
05 Jun 5.3 03:07:45 10° N 03:10:43 14° NNE 03:13:42 10° ENE visible
05 Jun 3.9 21:30:27 10° WSW 21:35:33 35° NW 21:40:42 10° NNE visible
05 Jun 5.4 23:20:01 10° NW 23:21:27 11° NNW 23:22:53 10° N visible
06 Jun 5.4 02:52:44 10° N 02:55:35 14° NNE 02:58:26 10° ENE visible
06 Jun 3.9 21:15:18 10° WSW 21:20:27 36° NW 21:25:38 10° NNE visible
06 Jun 5.5 23:04:39 10° NW 23:06:18 11° NNW 23:07:58 10° N visible
07 Jun 5.5 02:37:43 10° N 02:40:27 13° NNE 02:43:10 10° ENE visible
07 Jun 3.9 21:00:09 10° WSW 21:05:21 38° NW 21:10:35 10° NNE visible
07 Jun 5.5 22:49:18 10° NW 22:51:09 11° NNW 22:53:00 10° N visible
